DW0937 Weather Reports


Display with metric or nautical units.
time (UTC)temp
F
wind
direction
speed
MPH
gust
MPH
rain 1hr
in
rain 24hr
in
rain mn
in
humidity
%
barometer
mb
20260505022641 47 292 2.0 6.0 0.00 0.00 0.00 44 1004.6
20260505022142 47 290 2.0 6.0 0.00 0.00 0.00 43 1004.5
20260505021641 47 316 2.0 5.0 0.00 0.00 0.00 43 1004.5
20260505021141 47 311 2.0 5.0 0.00 0.00 0.00 43 1004.4
20260505020638 48 288 2.0 4.0 0.00 0.00 0.00 43 1004.3
20260505020137 48 305 2.0 6.0 0.00 0.00 0.00 43 1004.3
20260505015637 48 311 2.0 6.0 0.00 0.00 0.00 42 1004.2
20260505015137 48 306 2.0 6.0 0.00 0.00 0.00 42 1004.2
20260505014637 48 311 4.0 10.0 0.00 0.00 0.00 42 1004.1
20260505014137 48 312 5.0 10.0 0.00 0.00 0.00 41 1004.1
20260505013636 49 312 5.0 9.0 0.00 0.00 0.00 40 1004.0
20260505013137 49 300 5.0 11.0 0.00 0.00 0.00 40 1004.0
20260505012636 49 311 5.0 14.0 0.00 0.00 0.00 40 1003.9
20260505012134 49 311 5.0 14.0 0.00 0.00 0.00 40 1003.9
20260505011632 49 313 5.0 12.0 0.00 0.00 0.00 41 1003.7
20260505011347 50 298 5.0 12.0 0.00 0.00 0.00 41 1003.7
20260505010623 50 313 5.0 12.0 0.00 0.00 0.00 41 1003.6
20260505010124 50 302 4.0 11.0 0.00 0.00 0.00 41 1003.5
20260505005615 51 306 5.0 14.0 0.00 0.00 0.00 42 1003.2
20260505005343 51 14 6.0 14.0 0.00 0.00 0.00 42 1003.2
20260505004836 51 9 6.0 17.0 0.00 0.00 0.00 41 1003.2
20260505004115 51 5 6.0 17.0 0.00 0.00 0.00 41 1003.1
20260505003615 51 203 6.0 17.0 0.00 0.00 0.00 41 1003.1
20260505003114 52 311 6.0 17.0 0.00 0.00 0.00 40 1003.0
20260505002616 52 330 6.0 17.0 0.00 0.00 0.00 40 1002.9
20260505002333 53 348 6.0 16.0 0.00 0.00 0.00 39 1002.8
20260505001835 53 325 5.0 10.0 0.00 0.00 0.00 38 1002.7
20260505001603 53 340 5.0 9.0 0.00 0.00 0.00 39 1002.7
20260505000615 53 295 5.0 11.0 0.00 0.00 0.00 39 1002.4
20260505000115 53 304 5.0 12.0 0.00 0.00 0.00 39 1002.3
20260504235615 53 323 5.0 12.0 0.00 0.00 0.00 39 1002.3
20260504235110 54 309 6.0 11.0 0.00 0.00 0.00 39 1002.3
20260504234607 54 317 5.0 11.0 0.00 0.00 0.00 38 1002.3
20260504234107 54 294 4.0 11.0 0.00 0.00 0.00 38 1002.2
20260504233829 54 306 4.0 11.0 0.00 0.00 0.00 38 1002.1
20260504233334 55 312 4.0 13.0 0.00 0.00 0.00 39 1002.0
20260504232608 55 273 4.0 13.0 0.00 0.00 0.00 39 1002.0
20260504232338 55 300 5.0 12.0 0.00 0.00 0.00 38 1001.8
20260504231606 55 311 6.0 12.0 0.00 0.00 0.00 38 1001.9
20260504231328 55 290 6.0 12.0 0.00 0.00 0.00 37 1001.8
20260504230606 54 300 5.0 12.0 0.00 0.00 0.00 39 1001.9
20260504230106 55 267 5.0 14.0 0.00 0.00 0.00 39 1001.9
20260504225603 55 298 6.0 17.0 0.00 0.00 0.00 40 1001.8
20260504225103 55 316 6.0 17.0 0.00 0.00 0.00 40 1001.8
20260504224604 55 343 5.0 12.0 0.00 0.00 0.00 39 1001.6
20260504224544 56 290 5.0 12.0 0.00 0.00 0.00 39 1001.5
20260504224100 56 327 5.0 13.0 0.00 0.00 0.00 39 1001.5
20260504223059 56 312 5.0 13.0 0.00 0.00 0.00 39 1001.4
20260504222556 56 315 6.0 15.0 0.00 0.00 0.00 40 1001.3
20260504222057 57 293 7.0 15.0 0.00 0.00 0.00 39 1001.2
20260504221558 58 311 7.0 15.0 0.00 0.00 0.00 38 1001.0
20260504221409 58 5 6.0 15.0 0.00 0.00 0.00 37 1000.9
20260504221314 58 309 6.0 15.0 0.00 0.00 0.00 37 1000.8
20260504220318 58 312 5.0 14.0 0.00 0.00 0.00 36 1000.8
20260504215556 58 319 6.0 13.0 0.00 0.00 0.00 37 1000.7
20260504215057 58 300 6.0 13.0 0.00 0.00 0.00 36 1000.6
20260504214557 58 308 5.0 13.0 0.00 0.00 0.00 37 1000.5
20260504214057 59 293 5.0 13.0 0.00 0.00 0.00 38 1000.4
20260504213558 60 273 5.0 15.0 0.00 0.00 0.00 35 1000.4
20260504213057 62 267 6.0 15.0 0.00 0.00 0.00 34 1000.2
20260504212557 62 274 6.0 14.0 0.00 0.00 0.00 34 1000.0
20260504212057 61 284 6.0 12.0 0.00 0.00 0.00 34 1000.0
20260504211552 61 294 7.0 13.0 0.00 0.00 0.00 34 1000.2
20260504211045 61 303 6.0 13.0 0.00 0.00 0.00 34 1000.1
20260504210546 62 325 5.0 12.0 0.00 0.00 0.00 34 1000.0
20260504210042 61 281 5.0 11.0 0.00 0.00 0.00 36 1000.0
20260504205541 62 290 5.0 15.0 0.00 0.00 0.00 34 1000.0
20260504205040 62 325 5.0 15.0 0.00 0.00 0.00 34 999.9
20260504204541 62 292 5.0 11.0 0.00 0.00 0.00 36 999.7
20260504204038 62 289 6.0 13.0 0.00 0.00 0.00 35 999.7
20260504203539 62 250 7.0 18.0 0.00 0.00 0.00 35 999.7
20260504203039 62 292 8.0 18.0 0.00 0.00 0.00 35 999.8
20260504202540 62 311 7.0 16.0 0.00 0.00 0.00 32 999.7
20260504202038 63 288 6.0 16.0 0.00 0.00 0.00 34 999.6
20260504201538 63 281 6.0 13.0 0.00 0.00 0.00 34 999.5
20260504201040 63 241 6.0 13.0 0.00 0.00 0.00 35 999.5
20260504200540 63 312 6.0 13.0 0.00 0.00 0.00 34 999.4
20260504200039 63 298 6.0 23.0 0.00 0.00 0.00 35 999.4
20260504195539 63 317 7.0 23.0 0.00 0.00 0.00 37 999.4
20260504195304 62 302 6.0 18.0 0.00 0.00 0.00 36 999.3
20260504194539 62 297 6.0 15.0 0.00 0.00 0.00 36 999.4
20260504194039 62 289 6.0 16.0 0.00 0.00 0.00 36 999.4
20260504193804 63 333 6.0 16.0 0.00 0.00 0.00 35 999.2
20260504193038 63 309 6.0 16.0 0.00 0.00 0.00 36 999.1
20260504192539 62 315 6.0 12.0 0.00 0.00 0.00 37 999.1
20260504192038 64 311 6.0 18.0 0.00 0.00 0.00 34 999.0
20260504191539 64 296 5.0 18.0 0.00 0.00 0.00 34 999.0
20260504191038 64 234 6.0 12.0 0.00 0.00 0.00 36 998.7
20260504190538 64 311 7.0 12.0 0.00 0.00 0.00 34 998.8
20260504190040 63 242 6.0 12.0 0.00 0.00 0.00 38 998.6
20260504185538 64 301 6.0 12.0 0.00 0.00 0.00 36 998.6
20260504185039 64 306 6.0 12.0 0.00 0.00 0.00 37 998.6
20260504184757 64 306 5.0 11.0 0.00 0.00 0.00 36 998.5
20260504184524 65 254 5.0 12.0 0.00 0.00 0.00 34 998.3
20260504183534 64 306 5.0 14.0 0.00 0.00 0.00 34 998.2
20260504183035 64 314 5.0 14.0 0.00 0.00 0.00 33 998.3
20260504182756 65 269 5.0 10.0 0.00 0.00 0.00 32 998.3
20260504182251 64 315 5.0 11.0 0.00 0.00 0.00 34 998.2
20260504181533 64 292 5.0 12.0 0.00 0.00 0.00 35 998.0
20260504181033 64 307 6.0 19.0 0.00 0.00 0.00 34 997.9
20260504180535 64 296 6.0 19.0 0.00 0.00 0.00 34 998.0
20260504180034 64 238 6.0 19.0 0.00 0.00 0.00 35 997.8
20260504175533 64 226 6.0 19.0 0.00 0.00 0.00 34 997.8
20260504175033 64 292 6.0 12.0 0.00 0.00 0.00 36 997.7
20260504174534 63 260 6.0 19.0 0.00 0.00 0.00 36 997.7
20260504174030 64 216 6.0 19.0 0.00 0.00 0.00 35 997.8
20260504173752 63 257 6.0 16.0 0.00 0.00 0.00 37 997.7
20260504173251 63 287 5.0 13.0 0.00 0.00 0.00 38 997.8
20260504172532 63 292 6.0 12.0 0.00 0.00 0.00 37 997.8
20260504172034 63 299 6.0 13.0 0.00 0.00 0.00 38 997.7
20260504171530 62 300 6.0 15.0 0.00 0.00 0.00 36 997.7
20260504171031 62 331 6.0 15.0 0.00 0.00 0.00 38 997.8
20260504170534 62 311 6.0 12.0 0.00 0.00 0.00 38 997.8
20260504151026 62 327 4.0 10.0 0.00 0.00 0.00 40 997.1
20260504150526 62 259 4.0 8.0 0.00 0.00 0.00 41 997.1
20260504141027 61 309 6.0 13.0 0.00 0.00 0.00 37 996.9
20260504140520 61 315 5.0 13.0 0.00 0.00 0.00 36 996.8
20260504130512 60 296 4.0 12.0 0.00 0.00 0.00 49 995.8
20260504110457 58 213 7.0 16.0 0.00 0.00 0.00 45 994.4
20260504100451 56 222 4.0 9.0 0.00 0.00 0.00 47 994.9
20260504081945 55 236 3.0 8.0 0.00 0.00 0.00 48 996.9
20260504081711 55 213 3.0 8.0 0.00 0.00 0.00 47 997.0
20260504080944 55 213 3.0 8.0 0.00 0.00 0.00 47 997.1
20260504080440 55 198 3.0 7.0 0.00 0.00 0.00 47 997.2
20260504050639 56 188 1.0 2.0 0.00 0.00 0.00 47 1000.6
20260504045918 56 188 1.0 2.0 0.00 0.00 0.00 47 1000.7
20260504045417 56 204 1.0 2.0 0.00 0.00 0.00 46 1000.8
20260504044917 56 205 1.0 2.0 0.00 0.00 0.00 46 1000.9
20260504044417 56 205 1.0 2.0 0.00 0.00 0.00 46 1000.9
20260504043917 56 205 1.0 2.0 0.00 0.00 0.00 45 1001.0
20260504043417 56 209 1.0 2.0 0.00 0.00 0.00 45 1001.1
20260504042917 56 210 1.0 2.0 0.00 0.00 0.00 44 1001.1
20260504042641 56 211 1.0 2.0 0.00 0.00 0.00 45 1001.2
20260504041916 56 229 1.0 2.0 0.00 0.00 0.00 45 1001.3
20260504041417 56 231 1.0 2.0 0.00 0.00 0.00 45 1001.3
20260504040917 56 235 0.0 1.0 0.00 0.00 0.00 44 1001.4
20260504040414 56 237 0.0 1.0 0.00 0.00 0.00 44 1001.6
20260504035916 56 241 0.0 1.0 0.00 0.00 0.00 44 1001.7
20260504035412 57 241 0.0 1.0 0.00 0.00 0.00 44 1001.9
20260504034910 57 241 0.0 0.0 0.00 0.00 0.00 44 1002.0
20260504034409 57 241 0.0 0.0 0.00 0.00 0.00 44 1002.1
20260504033907 58 242 0.0 0.0 0.00 0.00 0.00 43 1002.2
20260504033407 58 242 0.0 0.0 0.00 0.00 0.00 41 1002.3
20260504032905 58 242 0.0 0.0 0.00 0.00 0.00 41 1002.3
20260504032407 58 242 0.0 0.0 0.00 0.00 0.00 41 1002.4
20260504031904 58 242 0.0 0.0 0.00 0.00 0.00 40 1002.4
20260504031631 59 242 0.0 0.0 0.00 0.00 0.00 40 1002.5
20260504030902 59 242 0.0 0.0 0.00 0.00 0.00 39 1002.5
20260504030620 59 242 0.0 0.0 0.00 0.00 0.00 38 1002.7
20260504025901 60 242 0.0 0.0 0.00 0.00 0.00 38 1002.7
20260504025401 60 242 0.0 1.0 0.00 0.00 0.00 38 1002.7
20260504024901 60 242 0.0 1.0 0.00 0.00 0.00 36 1002.8
20260504024402 60 242 0.0 3.0 0.00 0.00 0.00 36 1002.7
20260504023902 61 242 1.0 3.0 0.00 0.00 0.00 35 1002.8
20260504023357 61 252 1.0 3.0 0.00 0.00 0.00 34 1002.8